Weather History for KPLN - March, 2013

Change the Weather History Date:

Saturday, March 23, 2013

  Actual Average Record
Temperature  
Mean Temperature 25 °F -  
Max Temperature 37 °F 40 °F 66 °F (1987)
Min Temperature 14 °F 20 °F -10 °F (1960)
Degree Days  
Heating Degree Days 40    
Moisture  
Dew Point 20 °F    
Average Humidity 76    
Maximum Humidity 93    
Minimum Humidity 55    
Precipitation  
Precipitation 0.00 in - - ()
Sea Level Pressure  
Sea Level Pressure 30.10 in    
Wind  
Wind Speed 5 mph (NW)    
Max Wind Speed 13 mph    
Max Gust Speed -    
Visibility 10 miles    
Events      
Averages and records for this station are not official NWS values.
T = Trace of Precipitation, MM = Missing Value Source: NWS Daily Summary

Daily Weather History Graph

Daily Weather History Graph

Search for Another Location

Airport or City:

Trip Planner

Search our weather history database for the weather conditions in past years. The results will help you decide how hot, cold, wet, or windy it might be!

Date:

Astronomy

Mar. 23, 2013 Rise Set
Actual Time 7:36 AM EDT 7:56 PM EDT
Civil Twilight 7:06 AM EDT 8:25 PM EDT
Nautical Twilight 6:31 AM EDT 9:00 PM EDT
Astronomical Twilight 5:55 AM EDT 9:36 PM EDT
Moon 4:12 PM EDT (3/23) 5:22 AM EDT (3/23)
Length of Visible Light 13h 19m
Length of Day
12h 19m
Waxing Gibbous, 85% of the Moon is Illuminated
Mar 23
Waxing Gibbous
Mar 27
Full
Apr 3
Last Quarter
Apr 10
New
Apr 18
First Quarter

Hourly Weather History & Observations

Time (EDT) Temp. Windchill Dew Point Humidity Pressure Visibility Wind Dir Wind Speed Gust Speed Precip Events Conditions
12:54 AM 24.1 °F 18.2 °F 18.0 °F 77% 30.07 in 10.0 mi NW 4.6 mph - N/A   Mostly Cloudy
1:54 AM 24.1 °F 17.0 °F 19.0 °F 81% 30.07 in 10.0 mi WNW 5.8 mph - N/A   Overcast
2:51 AM 23.0 °F 17.0 °F 17.6 °F 80% 30.03 in 10.0 mi WNW 4.6 mph - N/A   Scattered Clouds
2:54 AM 21.0 °F 16.2 °F 17.1 °F 85% 30.07 in 10.0 mi WNW 3.5 mph - N/A   Partly Cloudy
3:54 AM 19.9 °F 13.4 °F 16.0 °F 85% 30.06 in 10.0 mi WNW 4.6 mph - N/A   Clear
4:54 AM 18.0 °F 11.1 °F 15.1 °F 88% 30.06 in 10.0 mi WNW 4.6 mph - N/A   Clear
5:54 AM 15.1 °F 6.4 °F 12.9 °F 91% 30.08 in 10.0 mi WNW 5.8 mph - N/A   Clear
7:54 AM 14.0 °F 5.1 °F 10.9 °F 88% 30.10 in 10.0 mi WNW 5.8 mph - N/A   Mostly Cloudy
8:04 AM 14.0 °F - 10.4 °F 86% 30.07 in 10.0 mi Calm Calm - N/A   Scattered Clouds
8:11 AM 15.8 °F - 12.2 °F 86% 30.07 in 10.0 mi Calm Calm - N/A   Scattered Clouds
8:35 AM 19.4 °F - 15.8 °F 86% 30.07 in 10.0 mi Calm Calm - N/A   Mostly Cloudy
9:02 AM 21.2 °F - 19.4 °F 93% 30.07 in 10.0 mi Calm Calm - N/A   Scattered Clouds
9:54 AM 24.1 °F 17.0 °F 21.9 °F 91% 30.12 in 10.0 mi NW 5.8 mph - N/A   Clear
10:43 AM 30.2 °F 26.7 °F 24.8 °F 80% 30.09 in 10.0 mi NNE 3.5 mph - N/A   Mostly Cloudy
10:54 AM 32.0 °F 24.2 °F 23.0 °F 69% 30.13 in 10.0 mi North 9.2 mph - N/A   Overcast
11:54 AM 32.0 °F 28.7 °F 23.0 °F 69% 30.12 in 10.0 mi NW 3.5 mph - N/A   Overcast
12:54 PM 34.0 °F 29.8 °F 23.0 °F 64% 30.12 in 10.0 mi NW 4.6 mph - N/A   Mostly Cloudy
1:24 PM 33.8 °F 25.8 °F 21.2 °F 60% 30.09 in 10.0 mi NW 10.4 mph - N/A   Scattered Clouds
1:33 PM 33.8 °F 28.6 °F 23.0 °F 65% 30.09 in 10.0 mi NW 5.8 mph - N/A   Mostly Cloudy
1:54 PM 35.1 °F 26.9 °F 21.0 °F 57% 30.12 in 10.0 mi WNW 11.5 mph - N/A   Overcast
2:54 PM 34.0 °F 27.2 °F 21.0 °F 59% 30.12 in 10.0 mi West 8.1 mph - N/A   Partly Cloudy
3:54 PM 36.0 °F 29.0 °F 21.0 °F 55% 30.11 in 10.0 mi NW 9.2 mph - N/A   Scattered Clouds
4:54 PM 36.0 °F 28.0 °F 21.9 °F 57% 30.12 in 10.0 mi North 11.5 mph - 0.00 in   Mostly Cloudy
5:54 PM 34.0 °F 28.0 °F 23.0 °F 64% 30.10 in 10.0 mi WNW 6.9 mph - N/A   Overcast
6:54 PM 34.0 °F 26.6 °F 24.1 °F 67% 30.12 in 10.0 mi NW 9.2 mph - N/A   Overcast
8:54 PM 32.0 °F 25.6 °F 26.1 °F 79% 30.12 in 10.0 mi West 6.9 mph - N/A   Overcast
9:54 PM 32.0 °F 27.5 °F 26.1 °F 79% 30.13 in 10.0 mi NW 4.6 mph - N/A   Overcast
10:17 PM 32.0 °F 24.2 °F 26.6 °F 80% 30.10 in 10.0 mi NNE 9.2 mph - N/A   Overcast
10:54 PM 30.9 °F 25.2 °F 24.1 °F 76% 30.13 in 10.0 mi NNE 5.8 mph - N/A   Overcast
11:54 PM 30.0 °F 20.0 °F 21.9 °F 72% 30.12 in 10.0 mi North 12.7 mph - N/A   Overcast